STARLINK-34619, 64737

Orbit data source: Space-Track

STARLINK-34619, 64737 is a payload satellite owned by SpaceX/Seattle (US) in LEO that was launched on Wed, 02 Jul 2025 UTC via an FALCON 9 launch vehicle from the Air Force Eastern Test Range (AFETR). Payload-class satellites include a variety of spacecraft equipped with specific instruments for various scientific and technological missions. These include communications satellites like Starlink; space stations such as the ISS; scientific satellites like the Hubble; Earth observation satellites from companies like Planet Labs, Umbra, and HawkEye 360; GPS; miniature CubeSats for education and research; and military/defense satellites.

Loading next visibility...
Identifier
64737, 2025-144P
Orbit
LEO
Last TLE update
12 hours ago
Origin
Manufacturer
SpaceX/Seattle
Mission
Operational spacecraft
Bus & Motor
STARLINK V2MO, Unknown motor
Mass
575 kg wet, ~530 kg dry
Launch date (UTC)
2025-07-02 (1 week ago)
Launch vehicle
FALCON 9
Launch site
Air Force Eastern Test Range (AFETR)
Object type
Payload
Rocket body
Debris
Shape & HBR
Unknown
Radar Cross Section
RCS unknown

Expand to show TLE details & history

TLE from 12 hours ago
0 STARLINK-34619
1 64737U 25144P   25191.66668981 -.01202063  00000-0 -48268-2 0  9997
2 64737  53.1539 231.7266 0000871  80.6495  11.7061 15.88105737  2575
Epoch: 2025-07-10T16:00Z
TLE epoch observation values (Epoch: 2025-07-10T16:00:01.999Z)
Latitude
53.24476°
Longitude
156.82068°
Altitude
313.553 km
Speed
7.727 km/s
True Right ascension
21h 42m 38s
True Declination
53° 04' 07"
Sunlit
Object was in daylight at epoch
Visualization orbit readout
Latitude
12.04523°
Longitude
-128.87396°
Altitude
311.443 km
Speed
7.723 km/s
Apparent Right ascension
03h 31m 17s
Apparent Declination
-13° 38' 34"
Sunlit
Object is in daylight
Visualization observer readout
Local Sidereal Time
16:40:27
Azimuth
34.873° NE
Elevation
-59.656°
Doppler factor
1
Orbital elements
Apogee altitude
308.44 km
Perigee altitude
307.275 km
Semi-major axis
6,685.995 km
Eccentricity
0.00009
Inclination
53.1539°
RAAN
231.7266°
Arg. of periapsis
80.6495°
True anomaly
Unknown
Mean anomaly
11.7061°
Eccentric anomaly
Unknown
Mean motion
3.97003 °/min
Orbital period
90.68 mins
BSTAR
-0.0048268
Loading maneuver chart data...
Loading SW <> Apogee altitude chart data...
Loading historical data...
Loading historical data...
Loading historical data...
Loading historical data...
Loading historical data...
Loading historical data...
Loading historical data...

STARLINK-34619 Visibility forecast

Observer location: undefined°, undefined°

Span
Click to sort rows by Start time (UTC) header in descending order
Start Az.
Max El. time (UTC)
Max El. Az.
Max El.
End time (UTC)
End Az.
4 mins2025-07-11 05:23:34.253Z222.114° SW2025-07-11 05:25:34.253Z190.368° SSW41.1°2025-07-11 05:27:34.253Z56.535° ENE
|